Weather History for Columbia, MO

Change the Weather History Date:

Monday, August 26, 2013

  Actual Average Record
Temperature  
Mean Temperature 82 °F 75 °F  
Max Temperature 95 °F 86 °F 104 °F (1936)
Min Temperature 69 °F 64 °F 48 °F (1910)
Degree Days  
Heating Degree Days 0 0  
Month to date heating degree days 0 0  
Since 1 June heating degree days 6 11  
Since 1 July heating degree days 0 0  
Cooling Degree Days 17 10  
Month to date cooling degree days 248 301  
Year to date cooling degree days 971 1034  
Since 1 June cooling degree days 837 931  
Growing Degree Days 32 (Base 50)    
Moisture  
Dew Point 69 °F    
Average Humidity 71    
Maximum Humidity 97    
Minimum Humidity 44    
Precipitation  
Precipitation 0.00 in 0.14 in 2.29 in (2006)
Month to date precipitation 1.88 3.66  
Year to date precipitation 33.09 29.05  
Snow  
Snow 0.00 in 0.00 in 0.00 in (2013)
Month to date snowfall 0.0 0.0  
Since 1 June snowfall 0.0 0.0  
Since 1 July snowfall 0.0 0.0  
Snow Depth 0.00 in    
Sea Level Pressure  
Sea Level Pressure 30.14 in    
Wind  
Wind Speed 8 mph (SSW)    
Max Wind Speed 15 mph    
Max Gust Speed 19 mph    
Visibility 9 miles    
Events      
T = Trace of Precipitation, MM = Missing Value Source: NWS Daily Summary

Daily Weather History Graph

Daily Weather History Graph

Search for Another Location

Airport:

Trip Planner

Search our weather history database for the weather conditions in past years. The results will help you decide how hot, cold, wet, or windy it might be!

Date:

Astronomy

Aug. 26, 2013 Rise Set
Actual Time 6:32 AM CDT 7:47 PM CDT
Civil Twilight 6:05 AM CDT 8:15 PM CDT
Nautical Twilight 5:32 AM CDT 8:48 PM CDT
Astronomical Twilight 4:57 AM CDT 9:22 PM CDT
Moon 11:02 PM CDT (8/26) 12:30 PM CDT (8/26)
Length of Visible Light 14h 10m
Length of Day
13h 14m
Waning Gibbous, 66% of the Moon is Illuminated
Aug 26
Waning Gibbous
Aug 28
Last Quarter
Sep 5
New
Sep 12
First Quarter
Sep 19
Full

Hourly Weather History & Observations

Time (CDT) Temp. Heat Index Dew Point Humidity Pressure Visibility Wind Dir Wind Speed Gust Speed Precip Events Conditions
12:54 AM 73.0 °F - 64.0 °F 73% 30.17 in 10.0 mi SSE 8.1 mph - N/A   Clear
1:54 AM 70.0 °F - 64.9 °F 84% 30.17 in 10.0 mi South 8.1 mph - N/A   Clear
2:54 AM 70.0 °F - 66.9 °F 90% 30.17 in 9.0 mi South 8.1 mph - N/A   Clear
3:54 AM 70.0 °F - 66.9 °F 90% 30.15 in 7.0 mi South 6.9 mph - N/A   Clear
4:54 AM 70.0 °F - 68.0 °F 93% 30.16 in 5.0 mi South 4.6 mph - N/A   Clear
5:54 AM 70.0 °F - 68.0 °F 93% 30.16 in 5.0 mi South 5.8 mph - N/A   Clear
6:34 AM 69.1 °F - 68.0 °F 96% 30.20 in 2.5 mi SSE 5.8 mph - N/A   Clear
6:54 AM 69.1 °F - 68.0 °F 96% 30.18 in 2.0 mi South 4.6 mph - N/A   Clear
7:02 AM 69.1 °F - 68.0 °F 96% 30.21 in 5.0 mi South 4.6 mph - N/A   Clear
7:54 AM 73.0 °F - 71.1 °F 93% 30.19 in 10.0 mi South 4.6 mph - N/A   Clear
8:54 AM 80.1 °F 83.8 °F 72.0 °F 76% 30.19 in 10.0 mi SW 8.1 mph - N/A   Clear
9:54 AM 82.9 °F 87.5 °F 71.1 °F 67% 30.19 in 10.0 mi SW 11.5 mph - N/A   Clear
10:54 AM 86.0 °F 91.5 °F 71.1 °F 61% 30.19 in 10.0 mi WSW 10.4 mph - N/A   Clear
11:54 AM 89.1 °F 95.0 °F 71.1 °F 55% 30.18 in 10.0 mi West 8.1 mph - N/A   Clear
12:54 PM 90.0 °F 96.4 °F 71.1 °F 54% 30.16 in 10.0 mi SSW 5.8 mph - N/A   Partly Cloudy
1:54 PM 91.9 °F 97.4 °F 70.0 °F 48% 30.13 in 10.0 mi Variable 6.9 mph - N/A   Mostly Cloudy
2:54 PM 93.9 °F 98.6 °F 68.0 °F 43% 30.11 in 10.0 mi SW 11.5 mph - N/A   Clear
3:54 PM 91.9 °F 96.9 °F 69.1 °F 47% 30.09 in 10.0 mi SSW 8.1 mph - N/A   Mostly Cloudy
4:54 PM 93.0 °F 97.4 °F 68.0 °F 44% 30.08 in 10.0 mi SW 11.5 mph - N/A   Partly Cloudy
5:54 PM 91.0 °F 94.3 °F 66.9 °F 45% 30.08 in 10.0 mi SSW 10.4 mph - N/A   Partly Cloudy
6:54 PM 89.1 °F 92.1 °F 66.9 °F 48% 30.07 in 10.0 mi SW 9.2 mph - N/A   Clear
7:54 PM 81.0 °F 84.1 °F 69.1 °F 67% 30.07 in 10.0 mi SSW 8.1 mph - N/A   Clear
8:54 PM 78.1 °F - 68.0 °F 71% 30.07 in 10.0 mi SSW 6.9 mph - N/A   Clear
9:54 PM 75.9 °F - 69.1 °F 79% 30.06 in 10.0 mi SSW 8.1 mph - N/A   Clear
10:54 PM 75.9 °F - 69.1 °F 79% 30.06 in 10.0 mi SSW 5.8 mph - N/A   Clear
11:54 PM 75.0 °F - 69.1 °F 82% 30.07 in 10.0 mi South 4.6 mph - N/A   Clear